Year,Month,Day,Hour,Minute,Value (Times are PST for temperature in C)
2013,03,14,00,00,8.60
2013,03,14,00,01,8.60
2013,03,14,00,02,8.60
2013,03,14,00,03,8.60
2013,03,14,00,04,8.60
2013,03,14,00,05,8.60
2013,03,14,00,06,8.60
2013,03,14,00,07,8.60
2013,03,14,00,08,8.60
2013,03,14,00,09,8.60
2013,03,14,00,10,8.60
2013,03,14,00,11,8.60
2013,03,14,00,12,8.60
2013,03,14,00,13,8.60
2013,03,14,00,14,8.60
2013,03,14,00,15,8.60
2013,03,14,00,16,8.60
2013,03,14,00,17,8.60
2013,03,14,00,18,8.60
2013,03,14,00,19,8.60
2013,03,14,00,20,8.60
2013,03,14,00,21,8.60
2013,03,14,00,22,8.60
2013,03,14,00,23,8.60
2013,03,14,00,24,8.60
2013,03,14,00,25,8.60
2013,03,14,00,26,8.60
2013,03,14,00,27,8.60
2013,03,14,00,28,8.60
2013,03,14,00,29,8.60
2013,03,14,00,30,8.60
2013,03,14,00,31,8.60
2013,03,14,00,32,8.60
2013,03,14,00,33,8.60
2013,03,14,00,34,8.60
2013,03,14,00,35,8.60
2013,03,14,00,36,8.60
2013,03,14,00,37,8.60
2013,03,14,00,38,8.60
2013,03,14,00,39,8.60
2013,03,14,00,40,8.60
2013,03,14,00,41,8.60
2013,03,14,00,42,8.60
2013,03,14,00,43,8.60
2013,03,14,00,44,8.60
2013,03,14,00,45,8.60
2013,03,14,00,46,8.60
2013,03,14,00,47,8.60
2013,03,14,00,48,8.60
2013,03,14,00,49,8.60
2013,03,14,00,50,8.60
2013,03,14,00,51,8.60
2013,03,14,00,52,8.60
2013,03,14,00,53,8.60
2013,03,14,00,54,8.60
2013,03,14,00,55,8.60
2013,03,14,00,56,8.60
2013,03,14,00,57,8.60
2013,03,14,00,58,8.60
2013,03,14,00,59,8.60
2013,03,14,01,00,8.60
2013,03,14,01,01,8.50
2013,03,14,01,02,8.50
2013,03,14,01,03,8.50
2013,03,14,01,04,8.50
2013,03,14,01,05,8.50
2013,03,14,01,06,8.50
2013,03,14,01,07,8.50
2013,03,14,01,08,8.50
2013,03,14,01,09,8.50
2013,03,14,01,10,8.50
2013,03,14,01,11,8.50
2013,03,14,01,12,8.50
2013,03,14,01,13,8.50
2013,03,14,01,14,8.50
2013,03,14,01,15,8.50
2013,03,14,01,16,8.50
2013,03,14,01,17,8.50
2013,03,14,01,18,8.50
2013,03,14,01,19,8.50
2013,03,14,01,20,8.50
2013,03,14,01,21,8.40
2013,03,14,01,22,8.50
2013,03,14,01,23,8.50
2013,03,14,01,24,8.50
2013,03,14,01,25,8.50
2013,03,14,01,26,8.50
2013,03,14,01,27,8.50
2013,03,14,01,28,8.50
2013,03,14,01,29,8.50
2013,03,14,01,30,8.40
2013,03,14,01,31,8.40
2013,03,14,01,32,8.40
2013,03,14,01,33,8.40
2013,03,14,01,34,8.40
2013,03,14,01,35,8.50
2013,03,14,01,36,8.50
2013,03,14,01,37,8.50
2013,03,14,01,38,8.50
2013,03,14,01,39,8.40
2013,03,14,01,40,8.40
2013,03,14,01,41,8.40
2013,03,14,01,42,8.40
2013,03,14,01,43,8.40
2013,03,14,01,44,8.40
2013,03,14,01,45,8.50
2013,03,14,01,46,8.40
2013,03,14,01,47,8.40
2013,03,14,01,48,8.40
2013,03,14,01,49,8.40
2013,03,14,01,50,8.40
2013,03,14,01,51,8.40
2013,03,14,01,52,8.40
2013,03,14,01,53,8.40
2013,03,14,01,54,8.40
2013,03,14,01,55,8.40
2013,03,14,01,56,8.40
2013,03,14,01,57,8.40
2013,03,14,01,58,8.40
2013,03,14,01,59,8.40
2013,03,14,02,00,8.40
2013,03,14,02,01,8.40
2013,03,14,02,02,8.40
2013,03,14,02,03,8.40
2013,03,14,02,04,8.40
2013,03,14,02,05,8.40
2013,03,14,02,06,8.40
2013,03,14,02,07,8.40
2013,03,14,02,08,8.40
2013,03,14,02,09,8.40
2013,03,14,02,10,8.40
2013,03,14,02,11,8.40
2013,03,14,02,12,8.40
2013,03,14,02,13,8.50
2013,03,14,02,14,8.50
2013,03,14,02,15,8.50
2013,03,14,02,16,8.50
2013,03,14,02,17,8.50
2013,03,14,02,18,8.40
2013,03,14,02,19,8.40
2013,03,14,02,20,8.40
2013,03,14,02,21,8.40
2013,03,14,02,22,8.40
2013,03,14,02,23,8.40
2013,03,14,02,24,8.40
2013,03,14,02,25,8.40
2013,03,14,02,26,8.40
2013,03,14,02,27,8.40
2013,03,14,02,28,8.40
2013,03,14,02,29,8.50
2013,03,14,02,30,8.40
2013,03,14,02,31,8.40
2013,03,14,02,32,8.40
2013,03,14,02,33,8.40
2013,03,14,02,34,8.40
2013,03,14,02,35,8.50
2013,03,14,02,36,8.40
2013,03,14,02,37,8.40
2013,03,14,02,38,8.40
2013,03,14,02,39,8.40
2013,03,14,02,40,8.50
2013,03,14,02,41,8.50
2013,03,14,02,42,8.50
2013,03,14,02,43,8.50
2013,03,14,02,44,8.40
2013,03,14,02,45,8.40
2013,03,14,02,46,8.40
2013,03,14,02,47,8.40
2013,03,14,02,48,8.50
2013,03,14,02,49,8.50
2013,03,14,02,50,8.50
2013,03,14,02,51,8.50
2013,03,14,02,52,8.50
2013,03,14,02,53,8.50
2013,03,14,02,54,8.50
2013,03,14,02,55,8.50
2013,03,14,02,56,8.40
2013,03,14,02,57,8.40
2013,03,14,02,58,8.40
2013,03,14,02,59,8.40
2013,03,14,03,00,8.40
2013,03,14,03,01,8.40
2013,03,14,03,02,8.40
2013,03,14,03,03,8.40
2013,03,14,03,04,8.40
2013,03,14,03,05,8.40
2013,03,14,03,06,8.40
2013,03,14,03,07,8.50
2013,03,14,03,08,8.50
2013,03,14,03,09,8.50
2013,03,14,03,10,8.50
2013,03,14,03,11,8.50
2013,03,14,03,12,8.50
2013,03,14,03,13,8.50
2013,03,14,03,14,8.50
2013,03,14,03,15,8.50
2013,03,14,03,16,8.50
2013,03,14,03,17,8.60
2013,03,14,03,18,8.60
2013,03,14,03,19,8.60
2013,03,14,03,20,8.70
2013,03,14,03,21,8.70
2013,03,14,03,22,8.70
2013,03,14,03,23,8.80
2013,03,14,03,24,8.80
2013,03,14,03,25,8.80
2013,03,14,03,26,8.80
2013,03,14,03,27,8.80
2013,03,14,03,28,8.80
2013,03,14,03,29,8.90
2013,03,14,03,30,8.90
2013,03,14,03,31,8.90
2013,03,14,03,32,8.90
2013,03,14,03,33,8.90
2013,03,14,03,34,8.90
2013,03,14,03,35,8.90
2013,03,14,03,36,8.90
2013,03,14,03,37,8.90
2013,03,14,03,38,8.90
2013,03,14,03,39,8.90
2013,03,14,03,40,8.90
2013,03,14,03,41,8.90
2013,03,14,03,42,8.90
2013,03,14,03,43,8.80
2013,03,14,03,44,8.80
2013,03,14,03,45,8.80
2013,03,14,03,46,8.90
2013,03,14,03,47,8.90
2013,03,14,03,48,8.90
2013,03,14,03,49,8.90
2013,03,14,03,50,8.90
2013,03,14,03,51,8.90
2013,03,14,03,52,9.00
2013,03,14,03,53,9.00
2013,03,14,03,54,9.00
2013,03,14,03,55,9.00
2013,03,14,03,56,9.00
2013,03,14,03,57,9.00
2013,03,14,03,58,9.00
2013,03,14,03,59,9.00
2013,03,14,04,00,9.00
2013,03,14,04,01,9.00
2013,03,14,04,02,9.00
2013,03,14,04,03,9.00
2013,03,14,04,04,9.00
2013,03,14,04,05,9.00
2013,03,14,04,06,8.90
2013,03,14,04,07,8.90
2013,03,14,04,08,8.90
2013,03,14,04,09,8.90
2013,03,14,04,10,8.90
2013,03,14,04,11,8.90
2013,03,14,04,12,8.90
2013,03,14,04,13,8.90
2013,03,14,04,14,8.90
2013,03,14,04,15,8.90
2013,03,14,04,16,8.90
2013,03,14,04,17,8.90
2013,03,14,04,18,8.90
2013,03,14,04,19,8.90
2013,03,14,04,20,8.90
2013,03,14,04,21,8.80
2013,03,14,04,22,8.80
2013,03,14,04,23,8.80
2013,03,14,04,24,8.80
2013,03,14,04,25,8.80
2013,03,14,04,26,8.80
2013,03,14,04,27,8.70
2013,03,14,04,28,8.70
2013,03,14,04,29,8.70
2013,03,14,04,30,8.70
2013,03,14,04,31,8.60
2013,03,14,04,32,8.60
2013,03,14,04,33,8.60
2013,03,14,04,34,8.60
2013,03,14,04,35,8.60
2013,03,14,04,36,8.50
2013,03,14,04,37,8.50
2013,03,14,04,38,8.40
2013,03,14,04,39,8.40
2013,03,14,04,40,8.40
2013,03,14,04,41,8.30
2013,03,14,04,42,8.30
2013,03,14,04,43,8.30
2013,03,14,04,44,8.30
2013,03,14,04,45,8.20
2013,03,14,04,46,8.20
2013,03,14,04,47,8.20
2013,03,14,04,48,8.20
2013,03,14,04,49,8.20
2013,03,14,04,50,8.20
2013,03,14,04,51,8.10
2013,03,14,04,52,8.10
2013,03,14,04,53,8.10
2013,03,14,04,54,8.10
2013,03,14,04,55,8.10
2013,03,14,04,56,8.10
2013,03,14,04,57,8.00
2013,03,14,04,58,8.00
2013,03,14,04,59,8.00
2013,03,14,05,00,8.00
2013,03,14,05,01,8.00
2013,03,14,05,02,8.00
2013,03,14,05,03,7.90
2013,03,14,05,04,7.90
2013,03,14,05,05,7.90
2013,03,14,05,06,7.90
2013,03,14,05,07,7.90
2013,03,14,05,08,7.90
2013,03,14,05,09,7.90
2013,03,14,05,10,7.90
2013,03,14,05,11,7.90
2013,03,14,05,12,7.90
2013,03,14,05,13,7.80
2013,03,14,05,14,7.80
2013,03,14,05,15,7.80
2013,03,14,05,16,7.80
2013,03,14,05,17,7.80
2013,03,14,05,18,7.80
2013,03,14,05,19,7.80
2013,03,14,05,20,7.80
2013,03,14,05,21,7.80
2013,03,14,05,22,7.80
2013,03,14,05,23,7.80
2013,03,14,05,24,7.80
2013,03,14,05,25,7.80
2013,03,14,05,26,7.80
2013,03,14,05,27,7.80
2013,03,14,05,28,7.80
2013,03,14,05,29,7.80
2013,03,14,05,30,7.80
2013,03,14,05,31,7.80
2013,03,14,05,32,7.80
2013,03,14,05,33,7.80
2013,03,14,05,34,7.80
2013,03,14,05,35,7.80
2013,03,14,05,36,7.80
2013,03,14,05,37,7.80
2013,03,14,05,38,7.80
2013,03,14,05,39,7.80
2013,03,14,05,40,7.80
2013,03,14,05,41,7.80
2013,03,14,05,42,7.80
2013,03,14,05,43,7.80
2013,03,14,05,44,7.90
2013,03,14,05,45,7.90
2013,03,14,05,46,7.90
2013,03,14,05,47,7.90
2013,03,14,05,48,7.90
2013,03,14,05,49,7.90
2013,03,14,05,50,7.90
2013,03,14,05,51,7.90
2013,03,14,05,52,7.90
2013,03,14,05,53,7.90
2013,03,14,05,54,7.90
2013,03,14,05,55,7.90
2013,03,14,05,56,7.90
2013,03,14,05,57,7.90
2013,03,14,05,58,7.80
2013,03,14,05,59,7.80
2013,03,14,06,00,7.80
2013,03,14,06,01,7.80
2013,03,14,06,02,7.80
2013,03,14,06,03,7.80
2013,03,14,06,04,7.80
2013,03,14,06,05,7.80
2013,03,14,06,06,7.80
2013,03,14,06,07,7.80
2013,03,14,06,08,7.80
2013,03,14,06,09,7.80
2013,03,14,06,10,7.80
2013,03,14,06,11,7.80
2013,03,14,06,12,7.80
2013,03,14,06,13,7.80
2013,03,14,06,14,7.70
2013,03,14,06,15,7.70
2013,03,14,06,16,7.70
2013,03,14,06,17,7.70
2013,03,14,06,18,7.70
2013,03,14,06,19,7.70
2013,03,14,06,20,7.70
2013,03,14,06,21,7.70
2013,03,14,06,22,7.70
2013,03,14,06,23,7.70
2013,03,14,06,24,7.70
2013,03,14,06,25,7.70
2013,03,14,06,26,7.70
2013,03,14,06,27,7.70
2013,03,14,06,28,7.70
2013,03,14,06,29,7.70
2013,03,14,06,30,7.70
2013,03,14,06,31,7.70
2013,03,14,06,32,7.60
2013,03,14,06,33,7.70
2013,03,14,06,34,7.70
2013,03,14,06,35,7.60
2013,03,14,06,36,7.60
2013,03,14,06,37,7.60
2013,03,14,06,38,7.60
2013,03,14,06,39,7.60
2013,03,14,06,40,7.60
2013,03,14,06,41,7.60
2013,03,14,06,42,7.60
2013,03,14,06,43,7.60
2013,03,14,06,44,7.60
2013,03,14,06,45,7.60
2013,03,14,06,46,7.60
2013,03,14,06,47,7.60
2013,03,14,06,48,7.60
2013,03,14,06,49,7.60
2013,03,14,06,50,7.60
2013,03,14,06,51,7.60
2013,03,14,06,52,7.60
2013,03,14,06,53,7.60
2013,03,14,06,54,7.60
2013,03,14,06,55,7.60
2013,03,14,06,56,7.60
2013,03,14,06,57,7.60
2013,03,14,06,58,7.60
2013,03,14,06,59,7.60
2013,03,14,07,00,7.60
2013,03,14,07,01,7.60
2013,03,14,07,02,7.60
2013,03,14,07,03,7.60
2013,03,14,07,04,7.60
2013,03,14,07,05,7.60
2013,03,14,07,06,7.60
2013,03,14,07,07,7.50
2013,03,14,07,08,7.50
2013,03,14,07,09,7.50
2013,03,14,07,10,7.50
2013,03,14,07,11,7.50
2013,03,14,07,12,7.50
2013,03,14,07,13,7.50
2013,03,14,07,14,7.50
2013,03,14,07,15,7.50
2013,03,14,07,16,7.50
2013,03,14,07,17,7.50
2013,03,14,07,18,7.50
2013,03,14,07,19,7.50
2013,03,14,07,20,7.50
2013,03,14,07,21,7.50
2013,03,14,07,22,7.50
2013,03,14,07,23,7.50
2013,03,14,07,24,7.50
2013,03,14,07,25,7.50
2013,03,14,07,26,7.40
2013,03,14,07,27,7.40
2013,03,14,07,28,7.40
2013,03,14,07,29,7.40
2013,03,14,07,30,7.40
2013,03,14,07,31,7.40
2013,03,14,07,32,7.40
2013,03,14,07,33,7.40
2013,03,14,07,34,7.40
2013,03,14,07,35,7.40
2013,03,14,07,36,7.40
2013,03,14,07,37,7.40
2013,03,14,07,38,7.40
2013,03,14,07,39,7.40
2013,03,14,07,40,7.40
2013,03,14,07,41,7.40
2013,03,14,07,42,7.40
2013,03,14,07,43,7.40
2013,03,14,07,44,7.40
2013,03,14,07,45,7.40
2013,03,14,07,46,7.40
2013,03,14,07,47,7.40
2013,03,14,07,48,7.40
2013,03,14,07,49,7.40
2013,03,14,07,50,7.40
2013,03,14,07,51,7.40
2013,03,14,07,52,7.40
2013,03,14,07,53,7.40
2013,03,14,07,54,7.40
2013,03,14,07,55,7.30
2013,03,14,07,56,7.30
2013,03,14,07,57,7.30
2013,03,14,07,58,7.30
2013,03,14,07,59,7.30
2013,03,14,08,00,7.30
2013,03,14,08,01,7.30
2013,03,14,08,02,7.30
2013,03,14,08,03,7.30
2013,03,14,08,04,7.30
2013,03,14,08,05,7.30
2013,03,14,08,06,7.30
2013,03,14,08,07,7.30
2013,03,14,08,08,7.30
2013,03,14,08,09,7.30
2013,03,14,08,10,7.30
2013,03,14,08,11,7.30
2013,03,14,08,12,7.30
2013,03,14,08,13,7.30
2013,03,14,08,14,7.30
2013,03,14,08,15,7.30
2013,03,14,08,16,7.30
2013,03,14,08,17,7.30
2013,03,14,08,18,7.30
2013,03,14,08,19,7.30
2013,03,14,08,20,7.30
2013,03,14,08,21,7.30
2013,03,14,08,22,7.30
2013,03,14,08,23,7.30
2013,03,14,08,24,7.30
2013,03,14,08,25,7.30
2013,03,14,08,26,7.30
2013,03,14,08,27,7.40
2013,03,14,08,28,7.40
2013,03,14,08,29,7.40
2013,03,14,08,30,7.40
2013,03,14,08,31,7.50
2013,03,14,08,32,7.50
2013,03,14,08,33,7.60
2013,03,14,08,34,7.60
2013,03,14,08,35,7.60
2013,03,14,08,36,7.60
2013,03,14,08,37,7.60
2013,03,14,08,38,7.60
2013,03,14,08,39,7.60
2013,03,14,08,40,7.60
2013,03,14,08,41,7.60
2013,03,14,08,42,7.60
2013,03,14,08,43,7.60
2013,03,14,08,44,7.60
2013,03,14,08,45,7.60
2013,03,14,08,46,7.60
2013,03,14,08,47,7.60
2013,03,14,08,48,7.70
2013,03,14,08,49,7.70
2013,03,14,08,50,7.70
2013,03,14,08,51,7.70
2013,03,14,08,52,7.80
2013,03,14,08,53,7.80
2013,03,14,08,54,7.80
2013,03,14,08,55,7.80
2013,03,14,08,56,7.80
2013,03,14,08,57,7.80
2013,03,14,08,58,7.80
2013,03,14,08,59,7.80
2013,03,14,09,00,7.80
2013,03,14,09,01,7.80
2013,03,14,09,02,7.80
2013,03,14,09,03,7.80
2013,03,14,09,04,7.80
2013,03,14,09,05,7.80
2013,03,14,09,06,7.80
2013,03,14,09,07,7.80
2013,03,14,09,08,7.80
2013,03,14,09,09,7.80
2013,03,14,09,10,7.80
2013,03,14,09,11,7.90
2013,03,14,09,12,7.80
2013,03,14,09,13,7.90
2013,03,14,09,14,8.00
2013,03,14,09,15,8.00
2013,03,14,09,16,8.10
2013,03,14,09,17,8.10
2013,03,14,09,18,8.10
2013,03,14,09,19,8.20
2013,03,14,09,20,8.20
2013,03,14,09,21,8.20
2013,03,14,09,22,8.10
2013,03,14,09,23,8.10
2013,03,14,09,24,8.10
2013,03,14,09,25,8.10
2013,03,14,09,26,8.10
2013,03,14,09,27,8.20
2013,03,14,09,28,8.20
2013,03,14,09,29,8.20
2013,03,14,09,30,8.20
2013,03,14,09,31,8.20
2013,03,14,09,32,8.20
2013,03,14,09,33,8.20
2013,03,14,09,34,8.20
2013,03,14,09,35,8.20
2013,03,14,09,36,8.30
2013,03,14,09,37,8.30
2013,03,14,09,38,8.30
2013,03,14,09,39,8.30
2013,03,14,09,40,8.30
2013,03,14,09,41,8.30
2013,03,14,09,42,8.30
2013,03,14,09,43,8.30
2013,03,14,09,44,8.30
2013,03,14,09,45,8.30
2013,03,14,09,46,8.30
2013,03,14,09,47,8.30
2013,03,14,09,48,8.40
2013,03,14,09,49,8.40
2013,03,14,09,50,8.40
2013,03,14,09,51,8.40
2013,03,14,09,52,8.40
2013,03,14,09,53,8.40
2013,03,14,09,54,8.40
2013,03,14,09,55,8.40
2013,03,14,09,56,8.40
2013,03,14,09,57,8.40
2013,03,14,09,58,8.40
2013,03,14,09,59,8.50
2013,03,14,10,00,8.50
2013,03,14,10,01,8.60
2013,03,14,10,02,8.60
2013,03,14,10,03,8.60
2013,03,14,10,04,8.60
2013,03,14,10,05,8.60
2013,03,14,10,06,8.60
2013,03,14,10,07,8.70
2013,03,14,10,08,8.70
2013,03,14,10,09,8.70
2013,03,14,10,10,8.70
2013,03,14,10,11,8.70
2013,03,14,10,12,8.60
2013,03,14,10,13,8.60
2013,03,14,10,14,8.70
2013,03,14,10,15,8.70
2013,03,14,10,16,8.70
2013,03,14,10,17,8.70
2013,03,14,10,18,8.70
2013,03,14,10,19,8.70
2013,03,14,10,20,8.70
2013,03,14,10,21,8.80
2013,03,14,10,22,8.70
2013,03,14,10,23,8.70
2013,03,14,10,24,8.70
2013,03,14,10,25,8.70
2013,03,14,10,26,8.80
2013,03,14,10,27,8.80
2013,03,14,10,28,8.80
2013,03,14,10,29,8.80
2013,03,14,10,30,8.80
2013,03,14,10,31,8.80
2013,03,14,10,32,8.80
2013,03,14,10,33,8.80
2013,03,14,10,34,8.80
2013,03,14,10,35,8.90
2013,03,14,10,36,8.90
2013,03,14,10,37,8.90
2013,03,14,10,38,8.90
2013,03,14,10,39,8.90
2013,03,14,10,40,9.00
2013,03,14,10,41,9.10
2013,03,14,10,42,9.10
2013,03,14,10,43,9.10
2013,03,14,10,44,9.10
2013,03,14,10,45,9.10
2013,03,14,10,46,9.10
2013,03,14,10,47,9.10
2013,03,14,10,48,9.10
2013,03,14,10,49,9.10
2013,03,14,10,50,9.10
2013,03,14,10,51,9.20
2013,03,14,10,52,9.20
2013,03,14,10,53,9.10
2013,03,14,10,54,9.10
2013,03,14,10,55,9.10
2013,03,14,10,56,9.10
2013,03,14,10,57,9.10
2013,03,14,10,58,9.20
2013,03,14,10,59,9.20
2013,03,14,11,00,9.20
2013,03,14,11,01,9.30
2013,03,14,11,02,9.30
2013,03,14,11,03,9.30
2013,03,14,11,04,9.30
2013,03,14,11,05,9.30
2013,03,14,11,06,9.30
2013,03,14,11,07,9.40
2013,03,14,11,08,9.40
2013,03,14,11,09,9.40
2013,03,14,11,10,9.40
2013,03,14,11,11,9.40
2013,03,14,11,12,9.40
2013,03,14,11,13,9.40
2013,03,14,11,14,9.40
2013,03,14,11,15,9.50
2013,03,14,11,16,9.50
2013,03,14,11,17,9.50
2013,03,14,11,18,9.50
2013,03,14,11,19,9.60
2013,03,14,11,20,9.60
2013,03,14,11,21,9.50
2013,03,14,11,22,9.50
2013,03,14,11,23,9.40
2013,03,14,11,24,9.40
2013,03,14,11,25,9.30
2013,03,14,11,26,9.30
2013,03,14,11,27,9.30
2013,03,14,11,28,9.30
2013,03,14,11,29,9.30
2013,03,14,11,30,9.30
2013,03,14,11,31,9.30
2013,03,14,11,32,9.30
2013,03,14,11,33,9.30
2013,03,14,11,34,9.30
2013,03,14,11,35,9.30
2013,03,14,11,36,9.20
2013,03,14,11,37,9.20
2013,03,14,11,38,9.20
2013,03,14,11,39,9.20
2013,03,14,11,40,9.20
2013,03,14,11,41,9.20
2013,03,14,11,42,9.20
2013,03,14,11,43,9.10
2013,03,14,11,44,9.10
2013,03,14,11,45,9.10
2013,03,14,11,46,9.10
2013,03,14,11,47,9.10
2013,03,14,11,48,9.10
2013,03,14,11,49,9.10
2013,03,14,11,50,9.10
2013,03,14,11,51,9.10
2013,03,14,11,52,9.10
2013,03,14,11,53,9.20
2013,03,14,11,54,9.20
2013,03,14,11,55,9.30
2013,03,14,11,56,9.30
2013,03,14,11,57,9.30
2013,03,14,11,58,9.30
2013,03,14,11,59,9.30
2013,03,14,12,00,9.30
2013,03,14,12,01,9.30
2013,03,14,12,02,9.30
2013,03,14,12,03,9.40
2013,03,14,12,04,9.40
2013,03,14,12,05,9.40
2013,03,14,12,06,9.50
2013,03,14,12,07,9.50
2013,03,14,12,08,9.50
2013,03,14,12,09,9.50
2013,03,14,12,10,9.50
2013,03,14,12,11,9.50
2013,03,14,12,12,9.50
2013,03,14,12,13,9.60
2013,03,14,12,14,9.60
2013,03,14,12,15,9.60
2013,03,14,12,16,9.60
2013,03,14,12,17,9.60
2013,03,14,12,18,9.60
2013,03,14,12,19,9.60
2013,03,14,12,20,9.60
2013,03,14,12,21,9.60
2013,03,14,12,22,9.70
2013,03,14,12,23,9.70
2013,03,14,12,24,9.70
2013,03,14,12,25,9.80
2013,03,14,12,26,9.80
2013,03,14,12,27,9.80
2013,03,14,12,28,9.80
2013,03,14,12,29,9.80
2013,03,14,12,30,9.90
2013,03,14,12,31,9.90
2013,03,14,12,32,10.00
2013,03,14,12,33,10.00
2013,03,14,12,34,10.00
2013,03,14,12,35,10.10
2013,03,14,12,36,10.10
2013,03,14,12,37,10.10
2013,03,14,12,38,10.10
2013,03,14,12,39,10.20
2013,03,14,12,40,10.10
2013,03,14,12,41,10.10
2013,03,14,12,42,10.10
2013,03,14,12,43,10.10
2013,03,14,12,44,10.10
2013,03,14,12,45,10.20
2013,03,14,12,46,10.20
2013,03,14,12,47,10.20
2013,03,14,12,48,10.20
2013,03,14,12,49,10.20
2013,03,14,12,50,10.30
2013,03,14,12,51,10.30
2013,03,14,12,52,10.30
2013,03,14,12,53,10.30
2013,03,14,12,54,10.30
2013,03,14,12,55,10.40
2013,03,14,12,56,10.40
2013,03,14,12,57,10.40
2013,03,14,12,58,10.50
2013,03,14,12,59,10.50
2013,03,14,13,00,10.60
2013,03,14,13,01,10.60
2013,03,14,13,02,10.60
2013,03,14,13,03,10.70
2013,03,14,13,04,10.70
2013,03,14,13,05,10.80
2013,03,14,13,06,10.80
2013,03,14,13,07,10.80
2013,03,14,13,08,10.80
2013,03,14,13,09,10.80
2013,03,14,13,10,10.80
2013,03,14,13,11,10.80
2013,03,14,13,12,10.80
2013,03,14,13,13,10.90
2013,03,14,13,14,10.90
2013,03,14,13,15,10.80
2013,03,14,13,16,10.80
2013,03,14,13,17,10.80
2013,03,14,13,18,10.80
2013,03,14,13,19,10.80
2013,03,14,13,20,10.80
2013,03,14,13,21,10.80
2013,03,14,13,22,10.80
2013,03,14,13,23,10.80
2013,03,14,13,24,10.80
2013,03,14,13,25,10.90
2013,03,14,13,26,10.90
2013,03,14,13,27,10.90
2013,03,14,13,28,10.90
2013,03,14,13,29,10.90
2013,03,14,13,30,10.90
2013,03,14,13,31,10.90
2013,03,14,13,32,10.80
2013,03,14,13,33,10.80
2013,03,14,13,34,10.80
2013,03,14,13,35,10.80
2013,03,14,13,36,10.80
2013,03,14,13,37,10.80
2013,03,14,13,38,10.80
2013,03,14,13,39,10.80
2013,03,14,13,40,10.80
2013,03,14,13,41,10.70
2013,03,14,13,42,10.70
2013,03,14,13,43,10.70
2013,03,14,13,44,10.70
2013,03,14,13,45,10.70
2013,03,14,13,46,10.70
2013,03,14,13,47,10.70
2013,03,14,13,48,10.70
2013,03,14,13,49,10.70
2013,03,14,13,50,10.70
2013,03,14,13,51,10.70
2013,03,14,13,52,10.70
2013,03,14,13,53,10.70
2013,03,14,13,54,10.70
2013,03,14,13,55,10.60
2013,03,14,13,56,10.60
2013,03,14,13,57,10.60
2013,03,14,13,58,10.50
2013,03,14,13,59,10.40
2013,03,14,14,00,10.40
2013,03,14,14,01,10.30
2013,03,14,14,02,10.30
2013,03,14,14,03,10.30
2013,03,14,14,04,10.30
2013,03,14,14,05,10.20
2013,03,14,14,06,10.20
2013,03,14,14,07,10.20
2013,03,14,14,08,10.20
2013,03,14,14,09,10.20
2013,03,14,14,10,10.20
2013,03,14,14,11,10.20
2013,03,14,14,12,10.20
2013,03,14,14,13,10.30
2013,03,14,14,14,10.30
2013,03,14,14,15,10.30
2013,03,14,14,16,10.30
2013,03,14,14,17,10.30
2013,03,14,14,18,10.30
2013,03,14,14,19,10.20
2013,03,14,14,20,10.20
2013,03,14,14,21,10.20
2013,03,14,14,22,10.20
2013,03,14,14,23,10.20
2013,03,14,14,24,10.20
2013,03,14,14,25,10.20
2013,03,14,14,26,10.10
2013,03,14,14,27,10.10
2013,03,14,14,28,10.00
2013,03,14,14,29,10.00
2013,03,14,14,30,10.00
2013,03,14,14,31,9.90
2013,03,14,14,32,9.90
2013,03,14,14,33,9.90
2013,03,14,14,34,9.80
2013,03,14,14,35,9.80
2013,03,14,14,36,9.80
2013,03,14,14,37,9.80
2013,03,14,14,38,9.80
2013,03,14,14,39,9.80
2013,03,14,14,40,9.80
2013,03,14,14,41,9.80
2013,03,14,14,42,9.80
2013,03,14,14,43,9.70
2013,03,14,14,44,9.70
2013,03,14,14,45,9.70
2013,03,14,14,46,9.70
2013,03,14,14,47,9.70
2013,03,14,14,48,9.60
2013,03,14,14,49,9.60
2013,03,14,14,50,9.60
2013,03,14,14,51,9.60
2013,03,14,14,52,9.60
2013,03,14,14,53,9.60
2013,03,14,14,54,9.50
2013,03,14,14,55,9.50
2013,03,14,14,56,9.40
2013,03,14,14,57,9.40
2013,03,14,14,58,9.40
2013,03,14,14,59,9.40
2013,03,14,15,00,9.40
2013,03,14,15,01,9.40
2013,03,14,15,02,9.40
2013,03,14,15,03,9.40
2013,03,14,15,04,9.40
2013,03,14,15,05,9.30
2013,03,14,15,06,9.30
2013,03,14,15,07,9.30
2013,03,14,15,08,9.30
2013,03,14,15,09,9.30
2013,03,14,15,10,9.30
2013,03,14,15,11,9.30
2013,03,14,15,12,9.30
2013,03,14,15,13,9.30
2013,03,14,15,14,9.30
2013,03,14,15,15,9.30
2013,03,14,15,16,9.30
2013,03,14,15,17,9.30
2013,03,14,15,18,9.30
2013,03,14,15,19,9.30
2013,03,14,15,20,9.30
2013,03,14,15,21,9.30
2013,03,14,15,22,9.30
2013,03,14,15,23,9.30
2013,03,14,15,24,9.30
2013,03,14,15,25,9.20
2013,03,14,15,26,9.20
2013,03,14,15,27,9.20
2013,03,14,15,28,9.20
2013,03,14,15,29,9.30
2013,03,14,15,30,9.30
2013,03,14,15,31,9.30
2013,03,14,15,32,9.30
2013,03,14,15,33,9.30
2013,03,14,15,34,9.20
2013,03,14,15,35,9.20
2013,03,14,15,36,9.20
2013,03,14,15,37,9.10
2013,03,14,15,38,9.20
2013,03,14,15,39,9.10
2013,03,14,15,40,9.10
2013,03,14,15,41,9.10
2013,03,14,15,42,9.10
2013,03,14,15,43,9.10
2013,03,14,15,44,9.20
2013,03,14,15,45,9.20
2013,03,14,15,46,9.20
2013,03,14,15,47,9.20
2013,03,14,15,48,9.20
2013,03,14,15,49,9.20
2013,03,14,15,50,9.20
2013,03,14,15,51,9.20
2013,03,14,15,52,9.10
2013,03,14,15,53,9.10
2013,03,14,15,54,9.10
2013,03,14,15,55,9.10
2013,03,14,15,56,9.00
2013,03,14,15,57,9.00
2013,03,14,15,58,9.00
2013,03,14,15,59,9.00
2013,03,14,16,00,9.00
2013,03,14,16,01,8.90
2013,03,14,16,02,8.90
2013,03,14,16,03,8.90
2013,03,14,16,04,8.90
2013,03,14,16,05,8.90
2013,03,14,16,06,8.80
2013,03,14,16,07,8.80
2013,03,14,16,08,8.80
2013,03,14,16,09,8.80
2013,03,14,16,10,8.80
2013,03,14,16,11,8.80
2013,03,14,16,12,8.80
2013,03,14,16,13,8.70
2013,03,14,16,14,8.70
2013,03,14,16,15,8.70
2013,03,14,16,16,8.70
2013,03,14,16,17,8.70
2013,03,14,16,18,8.70
2013,03,14,16,19,8.70
2013,03,14,16,20,8.70
2013,03,14,16,21,8.70
2013,03,14,16,22,8.80
2013,03,14,16,23,8.80
2013,03,14,16,24,8.70
2013,03,14,16,25,8.70
2013,03,14,16,26,8.70
2013,03,14,16,27,8.70
2013,03,14,16,28,8.70
2013,03,14,16,29,8.70
2013,03,14,16,30,8.70
2013,03,14,16,31,8.70
2013,03,14,16,32,8.70
2013,03,14,16,33,8.70
2013,03,14,16,34,8.70
2013,03,14,16,35,8.70
2013,03,14,16,36,8.70
2013,03,14,16,37,8.70
2013,03,14,16,38,8.60
2013,03,14,16,39,8.60
2013,03,14,16,40,8.60
2013,03,14,16,41,8.60
2013,03,14,16,42,8.60
2013,03,14,16,43,8.60
2013,03,14,16,44,8.60
2013,03,14,16,45,8.60
2013,03,14,16,46,8.60
2013,03,14,16,47,8.60
2013,03,14,16,48,8.60
2013,03,14,16,49,8.60
2013,03,14,16,50,8.60
2013,03,14,16,51,8.60
2013,03,14,16,52,8.60
2013,03,14,16,53,8.60
2013,03,14,16,54,8.60
2013,03,14,16,55,8.50
2013,03,14,16,56,8.60
2013,03,14,16,57,8.60
2013,03,14,16,58,8.60
2013,03,14,16,59,8.50
2013,03,14,17,00,8.50
2013,03,14,17,01,8.50
2013,03,14,17,02,8.50
2013,03,14,17,03,8.50
2013,03,14,17,04,8.50
2013,03,14,17,05,8.50
2013,03,14,17,06,8.50
2013,03,14,17,07,8.50
2013,03,14,17,08,8.50
2013,03,14,17,09,8.50
2013,03,14,17,10,8.60
2013,03,14,17,11,8.60
2013,03,14,17,12,8.50
2013,03,14,17,13,8.50
2013,03,14,17,14,8.50
2013,03,14,17,15,8.50
2013,03,14,17,16,8.50
2013,03,14,17,17,8.60
2013,03,14,17,18,8.60
2013,03,14,17,19,8.60
2013,03,14,17,20,8.60
2013,03,14,17,21,8.60
2013,03,14,17,22,8.60
2013,03,14,17,23,8.60
2013,03,14,17,24,8.60
2013,03,14,17,25,8.60
2013,03,14,17,26,8.50
2013,03,14,17,27,8.50
2013,03,14,17,28,8.50
2013,03,14,17,29,8.50
2013,03,14,17,30,8.40
2013,03,14,17,31,8.40
2013,03,14,17,32,8.40
2013,03,14,17,33,8.40
2013,03,14,17,34,8.40
2013,03,14,17,35,8.40
2013,03,14,17,36,8.40
2013,03,14,17,37,8.40
2013,03,14,17,38,8.30
2013,03,14,17,39,8.30
2013,03,14,17,40,8.40
2013,03,14,17,41,8.40
2013,03,14,17,42,8.40
2013,03,14,17,43,8.40
2013,03,14,17,44,8.40
2013,03,14,17,45,8.40
2013,03,14,17,46,8.50
2013,03,14,17,47,8.50
2013,03,14,17,48,8.50
2013,03,14,17,49,8.50
2013,03,14,17,50,8.60
2013,03,14,17,51,8.60
2013,03,14,17,52,8.60
2013,03,14,17,53,8.60
2013,03,14,17,54,8.60
2013,03,14,17,55,8.60
2013,03,14,17,56,8.50
2013,03,14,17,57,8.50
2013,03,14,17,58,8.50
2013,03,14,17,59,8.50
2013,03,14,18,00,8.50
2013,03,14,18,01,8.50